Back to catalog

ONEWEB-0085

AliveCommunicationsPO
NORAD 45438·PAYLOAD·🇬🇧 United Kingdom

Launched Mar 21, 2020 from Baikonur Cosmodrome

Loading…

Next Passes (next 24 hours)

TLE

FreshSource: CelesTrak SupGP

Epoch: Sep 14, 2026, 11:56 UTC

1 45438C 20020Q   26257.49775877 -.00003379  00000+0 -95452-2 0  2571
2 45438  87.8969   3.3111 0001773 102.8564   5.5725 13.11415768    18

Track ONEWEB-0085 in real time with AllMySat

Download on the App Store